Weather History for Oakdale, LA

Change the Weather History Date:

Saturday, March 9, 2013

  Actual Average (KPOE) Record (KPOE)
Temperature  
Mean Temperature 60 °F -  
Max Temperature 71 °F 65 °F 82 °F (2009)
Min Temperature 50 °F 45 °F 35 °F (2008)
Degree Days  
Heating Degree Days 4    
Growing Degree Days 10 (Base 50)    
Moisture  
Dew Point 55 °F    
Average Humidity 82    
Maximum Humidity 94    
Minimum Humidity 64    
Precipitation  
Precipitation 0.00 in - - ()
Sea Level Pressure  
Sea Level Pressure 30.02 in    
Wind  
Wind Speed 5 mph (SE)    
Max Wind Speed 14 mph    
Max Gust Speed 23 mph    
Visibility 10 miles    
Events Rain    
Averages and records for this station are not official NWS values.
T = Trace of Precipitation, MM = Missing Value Source: NWS Daily Summary

Daily Weather History Graph

Daily Weather History Graph

Search for Another Location

Airport:

Trip Planner

Search our weather history database for the weather conditions in past years. The results will help you decide how hot, cold, wet, or windy it might be!

Date:

Astronomy

Mar. 09, 2013 Rise Set
Actual Time 6:27 AM CST 6:15 PM CST
Civil Twilight 6:03 AM CST 6:39 PM CST
Nautical Twilight 5:35 AM CST 7:07 PM CST
Astronomical Twilight 5:07 AM CST 7:35 PM CST
Moon 4:45 AM CST (3/9) 4:22 PM CST (3/9)
Length of Visible Light 12h 35m
Length of Day
11h 47m
Waning Crescent, 5% of the Moon is Illuminated
Mar 9
Waning Crescent
Mar 11
New
Mar 19
First Quarter
Mar 27
Full
Apr 2
Last Quarter

Hourly Weather History & Observations

Time (CST) Temp. Dew Point Humidity Pressure Visibility Wind Dir Wind Speed Gust Speed Precip Events Conditions
12:15 AM 55.4 °F 46.4 °F 72% 30.12 in 10.0 mi SSE 4.6 mph - N/A   Clear
12:35 AM 55.4 °F 48.2 °F 77% 30.11 in 10.0 mi SSE 3.5 mph - N/A   Clear
12:55 AM 55.4 °F 50.0 °F 82% 30.10 in 10.0 mi SE 3.5 mph - N/A   Clear
1:15 AM 55.4 °F 50.0 °F 82% 30.11 in 10.0 mi Calm Calm - N/A   Clear
1:35 AM 55.4 °F 50.0 °F 82% 30.11 in 10.0 mi West 3.5 mph - N/A   Clear
1:55 AM 55.4 °F 50.0 °F 82% 30.12 in 10.0 mi West 3.5 mph - N/A   Clear
2:15 AM 53.6 °F 50.0 °F 88% 30.11 in 10.0 mi Calm Calm - N/A   Clear
2:35 AM 51.8 °F 50.0 °F 94% 30.11 in 10.0 mi Calm Calm - N/A   Clear
2:55 AM 51.8 °F 48.2 °F 88% 30.10 in 10.0 mi Calm Calm - N/A   Clear
3:15 AM 51.8 °F 48.2 °F 88% 30.10 in 10.0 mi Calm Calm - N/A   Clear
3:35 AM 50.0 °F 48.2 °F 94% 30.09 in 10.0 mi Calm Calm - N/A   Clear
3:55 AM 50.0 °F 48.2 °F 94% 30.09 in 10.0 mi Calm Calm - N/A   Clear
4:15 AM 50.0 °F 48.2 °F 94% 30.08 in 10.0 mi Calm Calm - N/A   Clear
4:35 AM 51.8 °F 48.2 °F 88% 30.08 in 10.0 mi Calm Calm - N/A   Clear
4:55 AM 51.8 °F 50.0 °F 94% 30.08 in 10.0 mi ESE 3.5 mph - N/A   Clear
5:15 AM 53.6 °F 50.0 °F 88% 30.07 in 10.0 mi ESE 5.8 mph - N/A   Scattered Clouds
5:35 AM 53.6 °F 51.8 °F 94% 30.08 in 10.0 mi SE 5.8 mph - N/A   Scattered Clouds
5:55 AM 53.6 °F 51.8 °F 94% 30.08 in 10.0 mi SE 3.5 mph - N/A   Clear
6:15 AM 53.6 °F 51.8 °F 94% 30.09 in 10.0 mi Calm Calm - N/A   Clear
6:35 AM 53.6 °F 51.8 °F 94% 30.10 in 10.0 mi Calm Calm - N/A   Clear
6:55 AM 53.6 °F 51.8 °F 94% 30.10 in 10.0 mi Calm Calm - N/A   Mostly Cloudy
7:15 AM 55.4 °F 51.8 °F 88% 30.10 in 10.0 mi Calm Calm - N/A   Overcast
7:35 AM 55.4 °F 51.8 °F 88% 30.11 in 10.0 mi Calm Calm - N/A   Mostly Cloudy
7:55 AM 55.4 °F 51.8 °F 88% 30.11 in 10.0 mi ESE 3.5 mph - N/A   Mostly Cloudy
8:15 AM 55.4 °F 51.8 °F 88% 30.10 in 10.0 mi East 4.6 mph - N/A   Scattered Clouds
8:35 AM 57.2 °F 51.8 °F 82% 30.10 in 10.0 mi ESE 5.8 mph - N/A   Scattered Clouds
8:55 AM 57.2 °F 51.8 °F 82% 30.10 in 10.0 mi ESE 5.8 mph - N/A   Scattered Clouds
9:15 AM 59.0 °F 51.8 °F 77% 30.10 in 10.0 mi ESE 8.1 mph - N/A   Clear
9:35 AM 59.0 °F 53.6 °F 82% 30.10 in 10.0 mi ESE 6.9 mph - N/A   Clear
9:55 AM 60.8 °F 53.6 °F 77% 30.08 in 10.0 mi SE 10.4 mph 17.3 mph N/A   Clear
10:15 AM 60.8 °F 53.6 °F 77% 30.07 in 10.0 mi ESE 8.1 mph - N/A   Clear
10:35 AM 60.8 °F 55.4 °F 82% 30.07 in 10.0 mi ESE 6.9 mph - N/A   Scattered Clouds
10:55 AM 62.6 °F 55.4 °F 77% 30.08 in 10.0 mi SE 5.8 mph - N/A   Mostly Cloudy
11:15 AM 62.6 °F 55.4 °F 77% 30.06 in 10.0 mi SE 8.1 mph - N/A   Scattered Clouds
11:35 AM 62.6 °F 57.2 °F 82% 30.06 in 10.0 mi SE 9.2 mph - N/A Rain Light Rain
11:55 AM 62.6 °F 57.2 °F 82% 30.05 in 10.0 mi SE 9.2 mph 16.1 mph N/A   Mostly Cloudy
12:15 PM 66.2 °F 57.2 °F 73% 30.04 in 10.0 mi SE 9.2 mph - N/A   Scattered Clouds
12:35 PM 68.0 °F 59.0 °F 73% 30.02 in 10.0 mi SE 12.7 mph 19.6 mph N/A   Clear
12:55 PM 69.8 °F 59.0 °F 68% 30.01 in 10.0 mi SSE 13.8 mph 19.6 mph N/A   Scattered Clouds
1:15 PM 69.8 °F 59.0 °F 68% 29.99 in 10.0 mi SSE 12.7 mph 23.0 mph N/A   Mostly Cloudy
1:35 PM 71.6 °F 59.0 °F 64% 29.99 in 10.0 mi SE 12.7 mph 17.3 mph N/A   Mostly Cloudy
1:55 PM 69.8 °F 59.0 °F 68% 29.99 in 10.0 mi SSE 12.7 mph 23.0 mph N/A   Mostly Cloudy
2:15 PM 69.8 °F 59.0 °F 68% 29.99 in 10.0 mi SSE 11.5 mph 18.4 mph N/A   Overcast
2:35 PM 69.8 °F 59.0 °F 68% 29.97 in 10.0 mi SSE 11.5 mph 18.4 mph N/A   Mostly Cloudy
3:15 PM 68.0 °F 59.0 °F 73% 29.97 in 10.0 mi SSE 10.4 mph 17.3 mph N/A   Mostly Cloudy
3:35 PM 69.8 °F 59.0 °F 68% 29.97 in 10.0 mi SSE 12.7 mph 18.4 mph N/A   Mostly Cloudy
3:55 PM 69.8 °F 59.0 °F 68% 29.95 in 10.0 mi SSE 10.4 mph - N/A   Mostly Cloudy
4:15 PM 68.0 °F 59.0 °F 73% 29.95 in 10.0 mi SSE 12.7 mph 21.9 mph N/A   Mostly Cloudy
4:35 PM 68.0 °F 59.0 °F 73% 29.95 in 10.0 mi SSE 11.5 mph 16.1 mph N/A   Scattered Clouds
4:55 PM 68.0 °F 59.0 °F 73% 29.95 in 10.0 mi SSE 11.5 mph 17.3 mph N/A   Scattered Clouds
5:15 PM 68.0 °F 59.0 °F 73% 29.95 in 10.0 mi SSE 9.2 mph 19.6 mph N/A   Scattered Clouds
5:35 PM 66.2 °F 59.0 °F 78% 29.93 in 10.0 mi SE 6.9 mph - N/A   Scattered Clouds
5:55 PM 66.2 °F 59.0 °F 78% 29.93 in 10.0 mi SSE 9.2 mph 16.1 mph N/A   Scattered Clouds
6:15 PM 66.2 °F 59.0 °F 78% 29.93 in 10.0 mi SE 9.2 mph - N/A   Clear
6:35 PM 66.2 °F 59.0 °F 78% 29.92 in 10.0 mi SE 8.1 mph - N/A   Clear
6:55 PM 64.4 °F 59.0 °F 83% 29.91 in 10.0 mi SSE 6.9 mph - N/A   Scattered Clouds
7:15 PM 64.4 °F 59.0 °F 83% 29.92 in 10.0 mi SSE 6.9 mph - N/A   Scattered Clouds
7:35 PM 64.4 °F 59.0 °F 83% 29.92 in 10.0 mi SSE 5.8 mph - N/A   Mostly Cloudy
7:55 PM 64.4 °F 59.0 °F 83% 29.92 in 10.0 mi SE 6.9 mph - N/A   Scattered Clouds
8:15 PM 64.4 °F 60.8 °F 88% 29.92 in 10.0 mi SSE 6.9 mph - N/A   Mostly Cloudy
8:35 PM 64.4 °F 60.8 °F 88% 29.92 in 10.0 mi SSE 9.2 mph - N/A   Overcast
8:55 PM 64.4 °F 59.0 °F 83% 29.92 in 10.0 mi SSE 10.4 mph 16.1 mph N/A   Overcast
9:15 PM 64.4 °F 59.0 °F 83% 29.91 in 10.0 mi SSE 8.1 mph 17.3 mph N/A   Overcast
9:35 PM 64.4 °F 59.0 °F 83% 29.91 in 10.0 mi SSE 9.2 mph - N/A   Mostly Cloudy
9:55 PM 64.4 °F 59.0 °F 83% 29.91 in 10.0 mi SSE 9.2 mph 17.3 mph N/A   Overcast
10:15 PM 64.4 °F 59.0 °F 83% 29.91 in 10.0 mi SSE 6.9 mph - N/A   Mostly Cloudy
10:35 PM 64.4 °F 59.0 °F 83% 29.91 in 10.0 mi SE 6.9 mph - N/A   Mostly Cloudy
10:55 PM 64.4 °F 59.0 °F 83% 29.90 in 10.0 mi SE 4.6 mph - N/A   Mostly Cloudy
11:15 PM 64.4 °F 59.0 °F 83% 29.90 in 10.0 mi SE 8.1 mph - N/A   Scattered Clouds
11:35 PM 64.4 °F 59.0 °F 83% 29.90 in 10.0 mi SE 8.1 mph - N/A   Scattered Clouds
11:55 PM 64.4 °F 59.0 °F 83% 29.90 in 10.0 mi SE 6.9 mph - N/A   Scattered Clouds